Change the Weather History Date:

Monday, October 15, 2012

  Actual Average (KCLT) Record (KCLT)
Temperature  
Mean Temperature 68 °F 60 °F  
Max Temperature 77 °F 72 °F 88 °F (1985)
Min Temperature 59 °F 49 °F 30 °F (2006)
Degree Days  
Heating Degree Days 0 6  
Month to date heating degree days 60  
Since 1 July heating degree days 83  
Cooling Degree Days 4 1  
Month to date cooling degree days 28  
Year to date cooling degree days 1503  
Growing Degree Days 18 (Base 50)    
Moisture  
Dew Point 60 °F    
Average Humidity 80    
Maximum Humidity 100    
Minimum Humidity 42    
Precipitation  
Precipitation 0.32 in 0.11 in 1.83 in (1954)
Month to date precipitation 1.75  
Year to date precipitation 33.59  
Snow  
Snow 0.00 in 0.00 in 0.00 in ()
Month to date snowfall 0.0  
Since 1 July snowfall 0.0  
Since 1 September snowfall 0.0  
Snow Depth -    
Sea Level Pressure  
Sea Level Pressure 29.89 in    
Wind  
Wind Speed 7 mph (SW)    
Max Wind Speed 13 mph    
Max Gust Speed 21 mph    
Visibility 9 miles    
Events Fog , Rain , Thunderstorm    
T = Trace of Precipitation, MM = Missing Value Source: NWS Daily Summary

Daily Weather History Graph

Daily Weather History Graph

Search for Another Location

Airport or City:

Trip Planner

Search our weather history database for the weather conditions in past years. The results will help you decide how hot, cold, wet, or windy it might be!

Date:

Astronomy

Oct. 15, 2012 Rise Set
Actual Time 7:28 AM EDT 6:46 PM EDT
Civil Twilight 7:03 AM EDT 7:12 PM EDT
Nautical Twilight 6:33 AM EDT 7:41 PM EDT
Astronomical Twilight 6:04 AM EDT 8:11 PM EDT
Moon 7:35 AM EDT (10/15) 6:48 PM EDT (10/15)
Length of Visible Light 12h 09m
Length of Day
11h 18m
New Moon, 0% of the Moon is Illuminated
Oct 15
New Moon
Oct 21
First Quarter
Oct 29
Full
Nov 6
Last Quarter
Nov 13
New

Hourly Weather History & Observations

Time (EDT) Temp. Dew Point Humidity Pressure Visibility Wind Dir Wind Speed Gust Speed Precip Events Conditions
12:53 AM 68.0 °F 61.0 °F 78% 30.04 in 10.0 mi SSW 8.1 mph - N/A   Mostly Cloudy
1:53 AM 66.9 °F 62.1 °F 84% 30.01 in 10.0 mi South 4.6 mph - N/A   Scattered Clouds
2:53 AM 66.9 °F 62.1 °F 84% 30.00 in 10.0 mi SSW 5.8 mph - N/A   Overcast
3:17 AM 66.2 °F 62.6 °F 88% 29.98 in 10.0 mi SSW 5.8 mph - N/A   Overcast
3:40 AM 66.2 °F 62.6 °F 88% 29.97 in 10.0 mi SSW 5.8 mph - N/A   Mostly Cloudy
3:53 AM 66.0 °F 63.0 °F 90% 29.97 in 10.0 mi SSW 4.6 mph - N/A   Scattered Clouds
4:53 AM 66.0 °F 62.1 °F 87% 29.95 in 10.0 mi SSW 5.8 mph - N/A   Mostly Cloudy
5:53 AM 64.9 °F 62.1 °F 90% 29.94 in 10.0 mi South 4.6 mph - N/A   Clear
6:53 AM 64.9 °F 62.1 °F 90% 29.94 in 10.0 mi South 3.5 mph - N/A   Partly Cloudy
7:53 AM 64.9 °F 63.0 °F 93% 29.94 in 10.0 mi SW 9.2 mph - N/A   Scattered Clouds
8:53 AM 66.9 °F 63.0 °F 87% 29.94 in 10.0 mi SSW 5.8 mph - N/A   Mostly Cloudy
9:48 AM 66.2 °F 62.6 °F 88% 29.93 in 10.0 mi SW 9.2 mph - 0.00 in   Overcast
9:53 AM 66.9 °F 63.0 °F 87% 29.95 in 10.0 mi WSW 8.1 mph - 0.00 in Rain , Thunderstorm Light Rain
10:37 AM 66.2 °F 64.4 °F 94% 29.92 in 9.0 mi WNW 5.8 mph - 0.03 in Rain , Thunderstorm Light Thunderstorms and Rain
10:47 AM 64.4 °F 64.4 °F 100% 29.91 in 1.2 mi Variable 4.6 mph - 0.22 in Rain , Thunderstorm Heavy Thunderstorms and Rain
10:50 AM 64.4 °F 64.4 °F 100% 29.90 in 0.5 mi Variable 6.9 mph - 0.31 in Fog , Rain , Thunderstorm Heavy Thunderstorms and Rain
10:53 AM 64.9 °F 64.0 °F 97% 29.91 in 0.5 mi SW 5.8 mph - 0.31 in Fog , Rain , Thunderstorm Heavy Thunderstorms and Rain
10:57 AM 64.4 °F 64.4 °F 100% 29.90 in 1.0 mi SW 3.5 mph - 0.00 in Rain , Thunderstorm Light Thunderstorms and Rain
11:00 AM 66.2 °F 64.4 °F 94% 29.90 in 4.0 mi SW 5.8 mph - 0.00 in Rain , Thunderstorm Light Thunderstorms and Rain
11:17 AM 66.2 °F 64.4 °F 94% 29.89 in 10.0 mi SSW 9.2 mph - 0.00 in   Overcast
11:53 AM 70.0 °F 66.9 °F 90% 29.87 in 10.0 mi SW 11.5 mph 17.3 mph 0.01 in   Mostly Cloudy
12:45 PM 69.8 °F 66.2 °F 88% 29.85 in 10.0 mi SW 12.7 mph - N/A   Overcast
12:53 PM 69.1 °F 66.0 °F 90% 29.85 in 10.0 mi SW 10.4 mph - N/A   Overcast
1:08 PM 69.8 °F 66.2 °F 88% 29.83 in 10.0 mi SW 12.7 mph - N/A   Overcast
1:53 PM 70.0 °F 64.9 °F 84% 29.82 in 10.0 mi SW 9.2 mph - N/A   Overcast
2:18 PM 71.6 °F 66.2 °F 83% 29.80 in 10.0 mi SW 9.2 mph - N/A   Overcast
2:53 PM 73.0 °F 64.9 °F 76% 29.79 in 10.0 mi SW 8.1 mph - N/A   Overcast
3:20 PM 75.2 °F 64.4 °F 69% 29.77 in 10.0 mi SW 11.5 mph - N/A   Scattered Clouds
3:53 PM 75.9 °F 64.0 °F 67% 29.77 in 10.0 mi WSW 10.4 mph - N/A   Partly Cloudy
4:53 PM 75.9 °F 61.0 °F 60% 29.75 in 10.0 mi WSW 10.4 mph - N/A   Partly Cloudy
5:53 PM 73.0 °F 60.1 °F 64% 29.77 in 10.0 mi West 5.8 mph - N/A   Mostly Cloudy
6:53 PM 70.0 °F 48.9 °F 47% 29.79 in 10.0 mi NNW 6.9 mph - N/A   Clear
7:53 PM 68.0 °F 44.1 °F 42% 29.82 in 10.0 mi NNW 9.2 mph - N/A   Clear
8:53 PM 64.0 °F 44.1 °F 48% 29.85 in 10.0 mi NNW 5.8 mph - N/A   Clear
9:53 PM 64.0 °F 42.1 °F 45% 29.86 in 10.0 mi NNW 12.7 mph 20.7 mph N/A   Clear
10:53 PM 62.1 °F 42.1 °F 48% 29.89 in 10.0 mi NW 4.6 mph - N/A   Clear
11:53 PM 59.0 °F 43.0 °F 55% 29.90 in 10.0 mi West 3.5 mph - N/A   Clear